Location: Mount Lemmon
(32.4432°N, 110.7577°W)
Time: 04:04:54
(UTC-07:00)

ISS - Visible Passes

Search period start: 20 September 2017 00:00
Search period end: 30 September 2017 00:00
Orbit: 401 x 407 km, 51.6° (Epoch: 20 September)

Date Brightness Start Highest point End Pass type
(mag) Time Alt. Az. Time Alt. Az. Time Alt. Az.
20 Sep -1.9 04:32:28 19° N 04:34:05 28° NE 04:36:57 10° E visible
21 Sep -0.3 03:43:18 12° ENE 03:43:18 12° ENE 03:43:43 10° ENE visible
21 Sep -3.4 05:16:02 17° WNW 05:18:12 42° SW 05:21:18 10° SSE visible
22 Sep -2.6 04:27:05 37° SE 04:27:05 37° SE 04:29:10 10° SE visible
22 Sep -2.2 19:23:27 10° S 19:25:14 20° SSE 19:25:14 20° SSE visible
23 Sep -1.6 05:11:02 12° SSW 05:11:02 12° SSW 05:11:39 10° SSW visible
23 Sep -2.3 20:06:44 10° WSW 20:08:54 35° W 20:08:54 35° W visible
24 Sep -3.9 19:14:20 10° SW 19:17:33 66° SE 19:19:37 20° NE visible
25 Sep -1.5 19:59:11 10° W 20:01:43 21° NW 20:02:46 18° N visible
26 Sep -2.5 19:06:08 10° WSW 19:09:13 39° NW 19:12:18 10° NNE visible
27 Sep -0.6 19:53:07 10° NW 19:53:39 10° NNW 19:54:13 10° NNW visible
28 Sep -1.1 18:58:45 10° WNW 19:00:59 17° NW 19:03:15 10° N visible
